Regional Weather Roundup
Issued by NWS

Home | Current Version | Previous Version | Graphics & Text | Print | Product List | Glossary On
Versions: 1 2 3 4 5 6 7 8 9 10 11 12 13 14 15 16 17 18 19 20 21 22 23 24 25 26 27 28 29 30 31 32 33 34 35 36 37 38 39 40 41 42 43 44 45 46 47 48 49 50
512
ASUS43 KLOT 231109
RWRIL

ILLINOIS REGIONAL WEATHER ROUNDUP
NATIONAL WEATHER SERVICE CHICAGO/ROMEOVILLE IL
600 AM CDT TUE MAY 23 2017

NOTE: "FAIR" INDICATES FEW OR NO CLOUDS BELOW 12,000 FEET WITH NO
SIGNIFICANT WEATHER AND/OR OBSTRUCTIONS TO VISIBILITY.

* THESE STATIONS ARE NOT UNDER NWS QUALITY CONTROL. THEY ALSO MAY NOT
  REPORT WEATHER SUCH AS PRECIPITATION OR FOG.

ILZ001-002-007-009-015-016-024-231200-
NORTHWEST ILLINOIS

CITY           SKY/WX    TMP DP  RH WIND       PRES   REMARKS
MOLINE         MOCLDY    55  51  86 SW7       29.80S
STERLING*      CLOUDY    56  53  90 VRB5      29.80F
SAVANNA*       MOCLDY    55  51  87 SW7       29.79S
$$

ILZ003-004-008-010-011-017-018-231200-
NORTH CENTRAL ILLINOIS

CITY           SKY/WX    TMP DP  RH WIND       PRES   REMARKS
ROCKFORD       CLOUDY    55  52  89 S10       29.80F
FREEPORT*      MOCLDY    53  51  93 SW8       29.80S
ROCHELLE*      CLOUDY    53  52  95 S8        29.81S
DE KALB*       CLOUDY    54  53  95 SW5       29.82S
PERU*          RAIN      56  53  87 SW10      29.83S
$$

ILZ005-006-012>014-019>023-231200-
NORTHEAST ILLINOIS

CITY           SKY/WX    TMP DP  RH WIND       PRES   REMARKS
CHICAGO-OHARE  CLOUDY    59  52  77 SW8       29.80F
CHICAGO-MIDWAY MOCLDY    60  53  77 SW13      29.81F
AURORA         CLOUDY    57  54  89 S8        29.82S
LANSING*       LGT RAIN  58  55  88 S9        29.84S
WAUKEGAN       PTCLDY    56  54  93 VRB3      29.79F
DUPAGE AIRPORT CLOUDY    57  54  89 SW12      29.81R
KANKAKEE*      CLOUDY    57  52  83 CALM      29.84S
WHEELING       CLOUDY    58  54  86 S7        29.82S
MORRIS*        LGT RAIN  57  54  89 CALM      29.82S
ROMEOVILLE*    CLOUDY    57  56  94 SW7       29.83R
NORTHERLY ISL    N/A     60  51  72 S10         N/A
$$

LMZ740>746-231200-
SOUTHERN LAKE MICHIGAN

STATION/POSITION SKY/WX   TEMP    WIND        PRES    VSBY  WAVE
                          AIR SEA DIR/SP/G                  HT/PER
                          (F)     (DEG/KT/KT) (MB)    (MI)  (FT/S)
SOUTHERN BUOY              48 45  190/  8/ 10 1009.8          1/ 4
WILMETTE HARBOR            56 54                N/A           1/ 2
HARRISON CRIB              61     220/ 18/ 20   N/A
BURNHAM HARBOR             60     190/  6/ 13   N/A
CALUMET HARBOR             60     210/  9/ 11 1009.5S
BURNS HARBOR               60     190/ 11/ 13 1010.8S
MICHIGAN CITY              60     180/ 11/ 13   N/A
MICHIGAN CITY 6N           58 53  200/ 12/ 14   N/A           1/ 3
ST. JOSEPH                 58 55  180/  6/  8 1010.4          1/ 3
$$

ILZ025>027-034>036-040-047-049-050-058-095>099-231200-
WEST-CENTRAL ILLINOIS

CITY           SKY/WX    TMP DP  RH WIND       PRES   REMARKS
QUINCY         LGT RAIN  56  55  97 S7        29.82F
GALESBURG*     RAIN      55  55  99 S6        29.81F
MACOMB*        LGT RAIN  55  55  98 S5        29.84F
JACKSONVILLE*  LGT RAIN  56  55  97 CALM      29.84F
PITTSFIELD*    RAIN      56  56  99 CALM      29.85S
$$

ILZ028>032-037-038-041>044-048-051>054-059>061-231200-
CENTRAL ILLINOIS

CITY           SKY/WX    TMP DP  RH WIND       PRES   REMARKS
PONTIAC        DRIZZLE   59  56  89 SW6       29.85R
BLOOMINGTON    LGT RAIN  57  53  86 W10       29.86S
DECATUR        CLOUDY    57  54  89 SE5       29.85F
PEORIA         LGT RAIN  56  55  97 W8        29.84F
LACON*         RAIN      56  56  99 SW6       29.83S
LINCOLN*       CLOUDY    58  58 100 CALM      29.86S
SPRINGFIELD    CLOUDY    58  57  97 CALM      29.85F
TAYLORVILLE    MOCLDY    56  55  95 E3        29.84F
$$

ILZ033-039-045-046-055>057-062-063-231200-
EAST-CENTRAL ILLINOIS

CITY           SKY/WX    TMP DP  RH WIND       PRES   REMARKS
CHAMPAIGN      CLOUDY    58  55  90 SE5       29.85F
RANTOUL*       CLOUDY    59  57  94 SE3       29.85F
MATTOON        CLOUDY    58  56  93 E3        29.85S
PARIS*         CLOUDY    58  53  85 CALM      29.87S
$$

ILZ079-100>102-231200-
SOUTHWEST ILLINOIS

CITY           SKY/WX    TMP DP  RH WIND       PRES   REMARKS
ALTON          CLOUDY    58  55  89 E5        29.83F
BELLEVILLE     LGT RAIN  59  57  94 N3        29.83F
CAHOKIA*       CLOUDY    60  55  83 CALM      29.82F
SPARTA*        MOCLDY    58  56  90 CALM      29.83F
$$

ILZ064>066-069>071-074>076-080>082-084>086-088>090-092>094-231200-
SOUTH-CENTRAL ILLINOIS

CITY           SKY/WX    TMP DP  RH WIND       PRES   REMARKS
CARBONDALE     CLOUDY    57  57 100 CALM      29.82F
CAIRO*         CLOUDY    60  57  89 CALM      29.83F
EFFINGHAM*     CLOUDY    59  56  92 CALM      29.86S
MARION         CLOUDY    59  55  88 CALM      29.84F
MT. VERNON       N/A     55  54  96 CALM      29.83F
CENTRALIA*     MOCLDY    60  55  82 CALM      29.83S
SALEM*         CLOUDY    62  52  71 CALM      29.83F
METROPOLIS*    CLOUDY    55  54  95 CALM      29.84F
$$

ILZ067-068-072-073-078-083-087-091-231200-
SOUTHEAST ILLINOIS

CITY           SKY/WX    TMP DP  RH WIND       PRES   REMARKS
LAWRENCEVILLE  CLOUDY    61  52  72 CALM      29.85S
FLORA*         CLOUDY    60  56  84 CALM      29.84F
FAIRFIELD*     CLOUDY    59  55  88 CALM      29.83F
HARRISBURG*    PTCLDY    56  55  95 CALM      29.84F
ROBINSON*      PTCLDY    57  54  89 CALM      29.86S
CARMI*         CLOUDY    59  55  86 CALM      29.84S
$$

ABBREVIATIONS USED IN REMARKS
   TC - TEMPERATURE IN CELSIUS
  WCI - WIND CHILL INDEX
   HX - HEAT INDEX
  VSB - VISIBILITY
$$





USA.gov is the U.S. government's official web portal to all federal, state and local government web resources and services.